Location: Coed Ely
(51.5661°N, 3.4150°W)
Time: 02:32:14
(UTC+00:00)

Cosmos 2082 Rocket - Pass Details

Date: 28 January 2021
Orbit: 832 x 855 km, 71.0° (Epoch: 28 February)

Event Time Altitude Azimuth Distance (km) Brightness Sun altitude
Rises 17:34:32 0° 330° (NNW) 3,438 5.5 -6.2°
Reaches altitude 10° 17:37:15 10° 340° (NNW) 2,498 4.7 -6.6°
Maximum altitude 17:42:25 33° 44° (NE) 1,399 2.9 -7.4°
Drops below altitude 10° 17:47:33 10° 108° (ESE) 2,479 4.2 -8.1°
Sets 17:50:14 0° 118° (ESE) 3,409 4.9 -8.5°
